Preview of NWS' New Version of Forecast
This preview is not operational and should not be used for support decisions.

Regional Weather Roundup (RWR)

Issued by Philadelphia/Mt Holly (PHI)

                            
000
ASUS41 KPHI 231512
RWRPHI

REGIONAL WEATHER ROUNDUP
NATIONAL WEATHER SERVICE MOUNT HOLLY NJ
1100 AM EDT SAT MAR 23 2019

NOTE:  "FAIR" INDICATES FEW OR NO CLOUDS BELOW 12,000 FEET WITH NO
SIGNIFICANT WEATHER AND/OR OBSTRUCTIONS TO VISIBILITY.

 * = STATION DOES NOT REPORT PRECIPITATION (E.G. RAIN, SNOW, ETC.) 
        OR FOG.

NJZ015>026-231600-
SOUTHERN NEW JERSEY
  
CITY           SKY/WX    TMP DP  RH WIND       PRES   REMARKS
POMONA         FAIR      44  25  47 NW23G38   29.92R                  
WILDWOOD*      FAIR      42  26  53 W16G31    30.00R                  
MILLVILLE      FAIR      43  23  45 NW21G36   29.98R                  
WRIGHTSTOWN    FAIR      42  22  44 W21G35    29.90R                  
MOUNT HOLLY    FAIR      42  22  44 W17G25    29.94R                  
TRENTON        FAIR      41  23  48 NW17G26   29.91R                  

$$
NJZ001>014-231600-
NORTHERN NEW JERSEY
  
CITY           SKY/WX    TMP DP  RH WIND       PRES   REMARKS
SUSSEX         FAIR      37  21  52 NW12G21   29.87R WCI  29          
ANDOVER*         N/A     36  19  50 NW9G21    29.88R WCI  29          
MORRISTOWN     PTSUNNY   39  23  52 NW20G30   29.87R WCI  30          
NEWARK         PTSUNNY   41  21  44 W22G32    29.86R                  
TETERBORO      FAIR      38  21  50 NW16G25   29.84R WCI  29          
CALDWELL       FAIR      39  21  48 NW16G33   29.86R WCI  30          
SOMERVILLE     FAIR      40  20  44 NW12G32   29.88R WCI  33          
ALLAIRE*       FAIR      41  22  46 W28G40    29.86R                  
TOMS RIVER*    FAIR      43  24  47 W24G35    29.90R                  

$$
PAZ043-044-047-054-055-060>062-066>071-231600-
EASTERN PENNSYLVANIA
  
CITY           SKY/WX    TMP DP  RH WIND       PRES   REMARKS
PHILADELPHIA   FAIR      42  20  41 NW20G26   29.98R                  
NORTH PHILA    FAIR      44  23  43 W18G31    29.95R                  
BLUE BELL*     FAIR      37  23  56 W13G25    29.97R WCI  29          
DOYLESTOWN     FAIR      40  20  44 NW17G31   29.93R WCI  31          
QUAKERTOWN*    SUNNY     39  21  48 W13G22    29.94  WCI  32          
PERKASIE*      FAIR      39  19  45 NW18G26   29.94R WCI  30          
POTTSTOWN      FAIR      39  21  48 NW20G32   29.97R WCI  29          
LANCASTER      FAIR      42  20  41 NW23G29   30.01R                  
COATESVILLE    FAIR      37  19  48 NW20G28   29.99R WCI  27          
READING        FAIR     N/A N/A N/A NW21G30   29.98R                  
ALLENTOWN      FAIR      41  18  39 W21G32    29.93R                  
MOUNT POCONO   FAIR      26  17  68 NW23G33   29.83R WCI  11          
HAZLETON       FAIR      32  12  43 NW18G28   29.93R WCI  20          
LEHIGHTON      FAIR      37  19  48 W9G18     29.96R WCI  31          
WILKES BARRE   FAIR      33  18  53 NW20G30   29.95R WCI  21          

$$
DEZALL-MDZ008-012-015-019-020-231600-
DELAWARE AND EASTERN MARYLAND
  
CITY           SKY/WX    TMP DP  RH WIND       PRES   REMARKS
WILMINGTON     FAIR      43  21  41 NW24G30   30.01R                  
DOVER          FAIR      43  22  44 W18G32    30.01R                  
GEORGETOWN     FAIR      45  25  45 W15G28    30.04R                  
EASTON         SUNNY     45  25  45 W15G31    30.11R                  
PATUXENT       FAIR      45  22  40 NW23G30   30.10R                  
OCEAN CITY     FAIR      44  27  51 NW23G33   30.03R                  
WALLOPS ISLAND FAIR      45  25  45 W20G33    30.07R                  
CAMBRIDGE      SUNNY     43  25  49 W17G29    30.09R                  
SALISBURY      FAIR      43  27  53 W20G31    30.06R                  

$$
PAZ001-021-NYZ056-072-MDZ011-DCZ001-231600-
OTHER NEARBY LOCATIONS
  
CITY           SKY/WX    TMP DP  RH WIND       PRES   REMARKS
HARRISBURG     FAIR      42  14  32 NW21G38   30.04R                  
STATE COLLEGE  SUNNY     34  10  37 NW15G26   30.07R WCI  24          
WILLIAMSPORT   FAIR      39   7  26 W18G29    30.03R WCI  30          
BINGHAMTON     FAIR      22  11  62 NW20G30   29.93R WCI   7          
NEW YORK CITY  FAIR      38  20  48 W8G20     29.86R WCI  32          
BALTIMORE      FAIR      44  21  40 NW18G29   30.07R                  
WASHINGTON DC  FAIR      43  20  39 W17G25    30.13R                  

$$